Погода в Красном

Россия / Липецкая область     53°13′24″N   38°43′47″E
темп.,
°C
ветер,
м/с
пор.,
м/с
влажн.,
%
обл.,
%
осадки,
мм/ч
давл.,
гПа
погр.,
м
17 августа, ср
ср1700:00+22в6144499 0.0 1017381
03:00+21в51246100 0.0 1017339
06:00+20всв51249100 0.0 1017298
09:00+23в61141100 0.0 1017549
12:00+24всв6941100 0.0 1016447
15:00+22всв41247100 0.0 1016378
18:00+23св61352100 0.0 1016440
21:00+23всв71644100 0.0 1015586
18 августа, чт
чт1800:00+23в61242100 0.0 1015462
03:00+21всв51245100 0.0 1014364
06:00+21всв61245100 0.0 1015376
09:00+20всв71344100 0.0 1015375
12:00+25всв81140100 0.0 1015844
15:00+27всв8103699 0.0 10141380
18:00+25всв81345100 0.0 1015980
21:00+22всв7144693 0.0 1016686
19 августа, пт
пт1900:00+21в7144274 0.0 1016535
03:00+20в7154973 0.0 1017634
06:00+19всв61260100 0.6 1018561
09:00+19в91371100 0.8 1020874
12:00+17в81388100 0.8 1021568
15:00+15всв81687100 2.4 1022532
18:00+16всв51566100 0.1 1022498
21:00+18всв51557100 0.1 1022384
20 августа, сб
сб2000:00+18в51347100 0.0 1022344
03:00+18в61445100 0.0 1021332
06:00+18в6155291 0.0 1021488
09:00+21в51153100 0.0 1023757
12:00+22вюв6114370 0.0 1023747
15:00+26вюв81034100 0.0 10221128
18:00+23вюв61136100 0.0 1023614
21:00+20вюв51337100 0.0 1023303
21 августа, вс
вс2100:00+20вюв51136100 0.0 1023221
03:00+20в41035100 0.0 1023308
06:00+19всв4837100 0.0 1023214
09:00+22вюв592898 0.0 1024464
12:00+23в6930100 0.0 1023655
15:00+26в5824100 0.0 10221294
18:00+24вюв4827100 0.0 1022278
21:00+20в4103048 0.0 1022172